| time (UTC) | temp F | wind direction | speed knots | gust knots | rain 1hr in | rain 24hr in | rain mn in | humidity % | barometer mb |
| 20260505193426 | 73 | 198 | 1.7 | 2.6 | 0.00 | 0.00 | 0.00 | 48 | 1012.7 |
| 20260505192924 | 73 | 162 | 0.9 | 1.7 | 0.00 | 0.00 | 0.00 | 48 | 1012.3 |
| 20260505192422 | 73 | 38 | 0.0 | 0.9 | 0.00 | 0.00 | 0.00 | 49 | 1012.6 |
| 20260505191919 | 73 | 232 | 0.9 | 1.7 | 0.00 | 0.00 | 0.00 | 47 | 1012.6 |
| 20260505191418 | 73 | 27 | 0.9 | 0.9 | 0.00 | 0.00 | 0.00 | 47 | 1012.9 |
| 20260505190914 | 73 | 187 | 2.6 | 2.6 | 0.00 | 0.00 | 0.00 | 46 | 1012.7 |
| 20260505190410 | 73 | 195 | 3.5 | 5.2 | 0.00 | 0.00 | 0.00 | 48 | 1012.8 |
| 20260505185905 | 73 | 147 | 0.0 | 0.9 | 0.00 | 0.00 | 0.00 | 48 | 1013.1 |
| 20260505185402 | 73 | 156 | 1.7 | 1.7 | 0.00 | 0.00 | 0.00 | 49 | 1013.0 |
| 20260505184858 | 73 | 58 | 1.7 | 1.7 | 0.00 | 0.00 | 0.00 | 50 | 1013.2 |
| 20260505184355 | 73 | 187 | 1.7 | 1.7 | 0.00 | 0.00 | 0.00 | 48 | 1013.2 |
| 20260505183852 | 73 | 210 | 2.6 | 2.6 | 0.00 | 0.00 | 0.00 | 50 | 1013.1 |
| 20260505183349 | 73 | 172 | 4.3 | 6.1 | 0.00 | 0.00 | 0.00 | 49 | 1013.4 |
| 20260505182846 | 73 | 244 | 1.7 | 1.7 | 0.00 | 0.00 | 0.00 | 50 | 1013.4 |
| 20260505182343 | 73 | 199 | 2.6 | 4.3 | 0.00 | 0.00 | 0.00 | 51 | 1013.7 |
| 20260505181839 | 72 | 191 | 3.5 | 4.3 | 0.00 | 0.00 | 0.00 | 50 | 1013.6 |
| 20260505181337 | 73 | 189 | 4.3 | 5.2 | 0.00 | 0.00 | 0.00 | 51 | 1013.7 |
| 20260505180833 | 73 | 272 | 2.6 | 2.6 | 0.00 | 0.00 | 0.00 | 50 | 1013.8 |
| 20260505180330 | 73 | 166 | 4.3 | 5.2 | 0.00 | 0.00 | 0.00 | 50 | 1013.9 |
| 20260505175826 | 73 | 288 | 2.6 | 2.6 | 0.00 | 0.00 | 0.00 | 49 | 1014.3 |
| 20260505175323 | 72 | 281 | 1.7 | 1.7 | 0.00 | 0.00 | 0.00 | 49 | 1014.3 |
| 20260505174819 | 72 | 181 | 1.7 | 1.7 | 0.00 | 0.00 | 0.00 | 49 | 1014.4 |
| 20260505174317 | 72 | 206 | 2.6 | 2.6 | 0.00 | 0.00 | 0.00 | 51 | 1014.2 |
| 20260505173812 | 72 | 243 | 4.3 | 5.2 | 0.00 | 0.00 | 0.00 | 52 | 1014.3 |
| 20260505173309 | 72 | 184 | 4.3 | 5.2 | 0.00 | 0.00 | 0.00 | 52 | 1014.4 |
| 20260505172806 | 72 | 275 | 2.6 | 2.6 | 0.00 | 0.00 | 0.00 | 53 | 1014.3 |
| 20260505172306 | 71 | 150 | 0.0 | 0.0 | 0.00 | 0.00 | 0.00 | 54 | 1014.4 |
| 20260505171758 | 71 | 199 | 2.6 | 2.6 | 0.00 | 0.00 | 0.00 | 54 | 1014.5 |
| 20260505171255 | 71 | 241 | 1.7 | 1.7 | 0.00 | 0.00 | 0.00 | 54 | 1014.6 |
| 20260505170752 | 71 | 211 | 2.6 | 4.3 | 0.00 | 0.00 | 0.00 | 53 | 1014.5 |
| 20260505170249 | 71 | 207 | 2.6 | 2.6 | 0.00 | 0.00 | 0.00 | 53 | 1014.8 |
| 20260505165744 | 72 | 195 | 2.6 | 4.3 | 0.00 | 0.00 | 0.00 | 55 | 1014.7 |
| 20260505165240 | 72 | 181 | 2.6 | 2.6 | 0.00 | 0.00 | 0.00 | 55 | 1014.8 |
| 20260505164736 | 71 | 92 | 1.7 | 2.6 | 0.00 | 0.00 | 0.00 | 56 | 1015.1 |
| 20260505164233 | 71 | 334 | 0.9 | 0.9 | 0.00 | 0.00 | 0.00 | 61 | 1014.9 |
| 20260505163731 | 71 | 153 | 1.7 | 1.7 | 0.00 | 0.00 | 0.00 | 60 | 1015.1 |
| 20260505163230 | 70 | 179 | 2.6 | 2.6 | 0.00 | 0.00 | 0.00 | 61 | 1015.2 |
| 20260505162727 | 70 | 184 | 2.6 | 2.6 | 0.00 | 0.00 | 0.00 | 59 | 1015.0 |
| 20260505162224 | 71 | 174 | 0.9 | 0.9 | 0.00 | 0.00 | 0.00 | 57 | 1015.2 |
| 20260505161720 | 71 | 355 | 0.9 | 1.7 | 0.00 | 0.00 | 0.00 | 58 | 1014.9 |
| 20260505161218 | 71 | 106 | 0.0 | 0.9 | 0.00 | 0.00 | 0.00 | 58 | 1015.1 |
| 20260505160715 | 71 | 185 | 1.7 | 2.6 | 0.00 | 0.00 | 0.00 | 56 | 1015.1 |
| 20260505160213 | 70 | 191 | 1.7 | 1.7 | 0.00 | 0.00 | 0.00 | 59 | 1015.3 |
| 20260505153152 | 70 | 159 | 0.9 | 0.9 | 0.00 | 0.00 | 0.00 | 60 | 1015.2 |
| 20260505152649 | 69 | 182 | 1.7 | 1.7 | 0.00 | 0.00 | 0.00 | 60 | 1015.1 |
| 20260505152144 | 69 | 152 | 0.9 | 0.9 | 0.00 | 0.00 | 0.00 | 62 | 1014.9 |
| 20260505151640 | 68 | 158 | 1.7 | 1.7 | 0.00 | 0.00 | 0.00 | 60 | 1015.0 |
| 20260505151138 | 68 | 180 | 0.9 | 0.9 | 0.00 | 0.00 | 0.00 | 59 | 1015.0 |
| 20260505150633 | 68 | 118 | 0.9 | 0.9 | 0.00 | 0.00 | 0.00 | 60 | 1014.9 |
| 20260505150131 | 68 | 126 | 0.0 | 0.9 | 0.00 | 0.00 | 0.00 | 60 | 1015.0 |
| 20260505140559 | 65 | 166 | 0.9 | 1.7 | 0.00 | 0.00 | 0.00 | 65 | 1015.1 |
| 20260505125013 | 61 | 160 | 0.9 | 0.9 | 0.00 | 0.00 | 0.00 | 76 | 1015.1 |
| 20260505124509 | 61 | 156 | 0.9 | 0.9 | 0.00 | 0.00 | 0.00 | 76 | 1015.1 |
| 20260505124006 | 60 | 101 | 0.0 | 0.0 | 0.00 | 0.00 | 0.00 | 77 | 1015.0 |
| 20260505123502 | 60 | 99 | 0.0 | 0.0 | 0.00 | 0.00 | 0.00 | 77 | 1015.1 |
| 20260505122958 | 59 | 116 | 0.0 | 0.0 | 0.00 | 0.00 | 0.00 | 78 | 1014.9 |
| 20260505122455 | 58 | 105 | 0.0 | 0.0 | 0.00 | 0.00 | 0.00 | 81 | 1014.9 |
| 20260505121952 | 58 | 108 | 0.0 | 0.0 | 0.00 | 0.00 | 0.00 | 81 | 1015.0 |
| 20260505121449 | 57 | 123 | 0.0 | 0.0 | 0.00 | 0.00 | 0.00 | 83 | 1014.9 |
| 20260505120945 | 57 | 136 | 0.9 | 0.9 | 0.00 | 0.00 | 0.00 | 84 | 1014.8 |
| 20260505120442 | 56 | 91 | 0.0 | 0.0 | 0.00 | 0.00 | 0.00 | 85 | 1014.7 |
| 20260505115941 | 55 | 91 | 0.0 | 0.0 | 0.00 | 0.00 | 0.00 | 85 | 1014.8 |
| 20260505115438 | 55 | 104 | 0.0 | 0.0 | 0.00 | 0.00 | 0.00 | 86 | 1014.7 |
| 20260505114936 | 54 | 104 | 0.0 | 0.0 | 0.00 | 0.00 | 0.00 | 85 | 1014.7 |
| 20260505114431 | 54 | 123 | 0.0 | 0.0 | 0.00 | 0.00 | 0.00 | 85 | 1014.7 |
| 20260505113928 | 54 | 123 | 0.0 | 0.0 | 0.00 | 0.00 | 0.00 | 85 | 1014.6 |
| 20260505113425 | 54 | 113 | 0.0 | 0.0 | 0.00 | 0.00 | 0.00 | 84 | 1014.8 |
| 20260505112920 | 54 | 114 | 0.0 | 0.0 | 0.00 | 0.00 | 0.00 | 84 | 1014.5 |
| 20260505112418 | 54 | 113 | 0.0 | 0.0 | 0.00 | 0.00 | 0.00 | 84 | 1014.6 |
| 20260505111914 | 54 | 111 | 0.0 | 0.0 | 0.00 | 0.00 | 0.00 | 84 | 1014.3 |
| 20260505111409 | 54 | 90 | 0.0 | 0.0 | 0.00 | 0.00 | 0.00 | 83 | 1014.4 |
| 20260505110906 | 54 | 98 | 0.0 | 0.0 | 0.00 | 0.00 | 0.00 | 83 | 1014.3 |
| 20260505110403 | 53 | 158 | 0.0 | 0.0 | 0.00 | 0.00 | 0.00 | 84 | 1014.2 |
| 20260505101833 | 53 | 108 | 0.0 | 0.0 | 0.00 | 0.00 | 0.00 | 83 | 1014.2 |
| 20260505101328 | 53 | 111 | 0.0 | 0.0 | 0.00 | 0.00 | 0.00 | 82 | 1014.2 |
| 20260505100824 | 54 | 122 | 0.0 | 0.0 | 0.00 | 0.00 | 0.00 | 83 | 1014.4 |
| 20260505100321 | 54 | 121 | 0.0 | 0.0 | 0.00 | 0.00 | 0.00 | 82 | 1014.1 |
| 20260505095817 | 54 | 112 | 0.0 | 0.0 | 0.00 | 0.00 | 0.00 | 81 | 1014.1 |
| 20260505095315 | 54 | 116 | 0.0 | 0.0 | 0.00 | 0.00 | 0.00 | 81 | 1014.2 |
| 20260505094810 | 54 | 97 | 0.0 | 0.0 | 0.00 | 0.00 | 0.00 | 81 | 1014.1 |
| 20260505094307 | 54 | 86 | 0.0 | 0.0 | 0.00 | 0.00 | 0.00 | 80 | 1014.1 |
| 20260505093803 | 55 | 124 | 0.0 | 0.0 | 0.00 | 0.00 | 0.00 | 78 | 1014.2 |
| 20260505093301 | 55 | 124 | 0.0 | 0.0 | 0.00 | 0.00 | 0.00 | 77 | 1014.4 |
| 20260505092757 | 56 | 124 | 0.0 | 0.0 | 0.00 | 0.00 | 0.00 | 76 | 1014.3 |
| 20260505092256 | 56 | 124 | 0.0 | 0.0 | 0.00 | 0.00 | 0.00 | 74 | 1014.4 |
| 20260505091753 | 57 | 79 | 0.0 | 0.0 | 0.00 | 0.00 | 0.00 | 73 | 1014.2 |
| 20260505091251 | 57 | 129 | 0.0 | 0.0 | 0.00 | 0.00 | 0.00 | 73 | 1014.1 |
| 20260505090748 | 58 | 78 | 0.0 | 0.0 | 0.00 | 0.00 | 0.00 | 70 | 1014.4 |
| 20260505090246 | 58 | 86 | 0.0 | 0.0 | 0.00 | 0.00 | 0.00 | 70 | 1014.4 |
| 20260505085743 | 58 | 41 | 0.9 | 0.9 | 0.00 | 0.00 | 0.00 | 70 | 1014.2 |
| 20260505085241 | 58 | 119 | 0.0 | 0.9 | 0.00 | 0.00 | 0.00 | 70 | 1014.0 |
| 20260505084738 | 58 | 132 | 0.9 | 0.9 | 0.00 | 0.00 | 0.00 | 71 | 1013.9 |
| 20260505084238 | 58 | 132 | 0.0 | 0.0 | 0.00 | 0.00 | 0.00 | 70 | 1014.0 |
| 20260505083734 | 58 | 132 | 0.0 | 0.0 | 0.00 | 0.00 | 0.00 | 71 | 1014.0 |
| 20260505083231 | 58 | 132 | 0.0 | 0.0 | 0.00 | 0.00 | 0.00 | 71 | 1014.0 |
| 20260505082726 | 58 | 132 | 0.0 | 0.0 | 0.00 | 0.00 | 0.00 | 71 | 1013.8 |
| 20260505082224 | 58 | 132 | 0.0 | 0.0 | 0.00 | 0.00 | 0.00 | 71 | 1013.7 |
| 20260505081719 | 58 | 132 | 0.0 | 0.0 | 0.00 | 0.00 | 0.00 | 71 | 1013.6 |
| 20260505081218 | 58 | 132 | 0.0 | 0.0 | 0.00 | 0.00 | 0.00 | 71 | 1013.8 |
| 20260505080714 | 58 | 132 | 0.0 | 0.0 | 0.00 | 0.00 | 0.00 | 71 | 1013.6 |
| 20260505080210 | 58 | 132 | 0.0 | 0.0 | 0.00 | 0.00 | 0.00 | 72 | 1013.4 |
| 20260505075706 | 58 | 133 | 0.0 | 0.0 | 0.00 | 0.00 | 0.00 | 72 | 1013.6 |
| 20260505075203 | 59 | 133 | 0.0 | 0.0 | 0.00 | 0.00 | 0.00 | 72 | 1013.5 |
| 20260505074700 | 59 | 133 | 0.0 | 0.9 | 0.00 | 0.00 | 0.00 | 72 | 1013.5 |
| 20260505074157 | 59 | 133 | 0.0 | 0.0 | 0.00 | 0.00 | 0.00 | 71 | 1013.3 |
| 20260505073654 | 59 | 135 | 0.0 | 0.0 | 0.00 | 0.00 | 0.00 | 71 | 1013.6 |
| 20260505073153 | 59 | 136 | 0.0 | 0.0 | 0.00 | 0.00 | 0.00 | 71 | 1013.5 |
| 20260505072648 | 59 | 136 | 0.0 | 0.0 | 0.00 | 0.00 | 0.00 | 71 | 1013.3 |
| 20260505072145 | 59 | 136 | 0.0 | 0.0 | 0.00 | 0.00 | 0.00 | 70 | 1013.9 |
| 20260505071640 | 60 | 136 | 0.0 | 0.0 | 0.00 | 0.00 | 0.00 | 70 | 1013.5 |
| 20260505071138 | 60 | 136 | 0.0 | 0.0 | 0.00 | 0.00 | 0.00 | 69 | 1013.6 |
| 20260505070635 | 60 | 137 | 0.0 | 0.0 | 0.00 | 0.00 | 0.00 | 68 | 1013.5 |
| 20260505070132 | 61 | 137 | 0.0 | 0.0 | 0.00 | 0.00 | 0.00 | 68 | 1013.7 |
| 20260505065627 | 61 | 137 | 0.0 | 0.9 | 0.00 | 0.00 | 0.00 | 67 | 1013.9 |
| 20260505065124 | 61 | 141 | 0.0 | 0.0 | 0.00 | 0.00 | 0.00 | 67 | 1013.8 |
| 20260505064621 | 62 | 144 | 0.0 | 0.9 | 0.00 | 0.00 | 0.00 | 67 | 1013.8 |
| 20260505064120 | 62 | 167 | 0.0 | 0.9 | 0.00 | 0.00 | 0.00 | 66 | 1013.7 |
| 20260505063617 | 62 | 96 | 0.9 | 0.9 | 0.00 | 0.00 | 0.00 | 67 | 1013.7 |
| 20260505063112 | 62 | 267 | 0.9 | 0.9 | 0.00 | 0.00 | 0.00 | 67 | 1013.6 |
| 20260505062609 | 61 | 138 | 0.0 | 0.0 | 0.00 | 0.00 | 0.00 | 67 | 1013.5 |
| 20260505062107 | 61 | 10 | 0.0 | 0.9 | 0.00 | 0.00 | 0.00 | 67 | 1013.6 |
| 20260505061604 | 61 | 71 | 0.0 | 0.9 | 0.00 | 0.00 | 0.00 | 67 | 1013.5 |
| 20260505061102 | 62 | 86 | 0.0 | 0.0 | 0.00 | 0.00 | 0.00 | 67 | 1013.5 |
| 20260505060559 | 62 | 92 | 0.0 | 0.0 | 0.00 | 0.00 | 0.00 | 67 | 1013.7 |
| 20260505060056 | 62 | 139 | 0.0 | 0.0 | 0.00 | 0.00 | 0.00 | 66 | 1013.7 |
| 20260505055551 | 62 | 113 | 0.0 | 0.0 | 0.00 | 0.00 | 0.00 | 66 | 1013.6 |
| 20260505055048 | 62 | 99 | 0.0 | 0.0 | 0.00 | 0.00 | 0.00 | 66 | 1013.5 |
| 20260505054545 | 62 | 77 | 0.0 | 0.0 | 0.00 | 0.00 | 0.00 | 66 | 1013.6 |
| 20260505054043 | 62 | 88 | 0.0 | 0.0 | 0.00 | 0.00 | 0.00 | 66 | 1013.4 |
| 20260505053540 | 62 | 98 | 0.0 | 0.0 | 0.00 | 0.00 | 0.00 | 66 | 1013.5 |
| 20260505053037 | 62 | 90 | 0.9 | 1.7 | 0.00 | 0.00 | 0.00 | 66 | 1013.5 |
| 20260505052533 | 62 | 15 | 0.9 | 0.9 | 0.00 | 0.00 | 0.00 | 65 | 1013.5 |
| 20260505052031 | 62 | 65 | 0.9 | 0.9 | 0.00 | 0.00 | 0.00 | 65 | 1013.4 |
| 20260505051528 | 62 | 85 | 0.0 | 0.9 | 0.00 | 0.00 | 0.00 | 65 | 1013.6 |
| 20260505051026 | 62 | 75 | 0.0 | 0.0 | 0.00 | 0.00 | 0.00 | 64 | 1013.5 |
| 20260505050524 | 62 | 75 | 0.0 | 0.0 | 0.00 | 0.00 | 0.00 | 64 | 1013.5 |
| 20260505041451 | 63 | 89 | 0.0 | 0.0 | 0.00 | 0.00 | 0.00 | 62 | 1013.4 |
| 20260505040948 | 63 | 97 | 0.0 | 0.0 | 0.00 | 0.00 | 0.00 | 62 | 1013.4 |
| 20260505040446 | 63 | 78 | 0.0 | 0.0 | 0.00 | 0.00 | 0.00 | 62 | 1013.4 |
| 20260505035943 | 63 | 65 | 0.0 | 0.0 | 0.00 | 0.00 | 0.00 | 62 | 1013.5 |
| 20260505035439 | 64 | 102 | 0.0 | 0.0 | 0.00 | 0.00 | 0.00 | 62 | 1013.4 |
| 20260505034936 | 64 | 82 | 0.0 | 0.0 | 0.00 | 0.00 | 0.00 | 61 | 1013.4 |
| 20260505034432 | 64 | 89 | 0.0 | 0.0 | 0.00 | 0.00 | 0.00 | 61 | 1013.6 |
| 20260505033930 | 64 | 84 | 0.0 | 0.0 | 0.00 | 0.00 | 0.00 | 60 | 1013.6 |
| 20260505033426 | 64 | 90 | 0.0 | 0.0 | 0.00 | 0.00 | 0.00 | 60 | 1013.6 |
| 20260505032924 | 65 | 92 | 0.0 | 0.0 | 0.00 | 0.00 | 0.00 | 59 | 1013.5 |
| 20260505032421 | 65 | 68 | 0.0 | 0.0 | 0.00 | 0.00 | 0.00 | 59 | 1013.5 |
| 20260505031918 | 65 | 95 | 0.0 | 0.0 | 0.00 | 0.00 | 0.00 | 58 | 1013.7 |
| 20260505031415 | 65 | 68 | 0.0 | 0.0 | 0.00 | 0.00 | 0.00 | 58 | 1013.7 |
| 20260505030912 | 66 | 114 | 0.0 | 0.0 | 0.00 | 0.00 | 0.00 | 58 | 1013.4 |
| 20260505030408 | 66 | 103 | 0.9 | 0.9 | 0.00 | 0.00 | 0.00 | 58 | 1013.7 |
| 20260505025903 | 66 | 150 | 0.0 | 0.9 | 0.00 | 0.00 | 0.00 | 57 | 1013.8 |
| 20260505025401 | 67 | 89 | 0.0 | 0.0 | 0.00 | 0.00 | 0.00 | 56 | 1013.6 |
| 20260505024900 | 67 | 133 | 0.0 | 0.9 | 0.00 | 0.00 | 0.00 | 55 | 1013.7 |
| 20260505024357 | 67 | 179 | 0.9 | 0.9 | 0.00 | 0.00 | 0.00 | 55 | 1013.7 |
| 20260505023854 | 68 | 175 | 0.9 | 0.9 | 0.00 | 0.00 | 0.00 | 56 | 1013.7 |
| 20260505023351 | 68 | 87 | 0.0 | 0.9 | 0.00 | 0.00 | 0.00 | 55 | 1013.7 |
| 20260505022848 | 68 | 185 | 1.7 | 1.7 | 0.00 | 0.00 | 0.00 | 54 | 1013.9 |
| 20260505022345 | 69 | 144 | 0.0 | 0.0 | 0.00 | 0.00 | 0.00 | 53 | 1013.7 |
| 20260505021842 | 69 | 183 | 0.9 | 0.9 | 0.00 | 0.00 | 0.00 | 53 | 1013.5 |
| 20260505021338 | 69 | 193 | 0.9 | 0.9 | 0.00 | 0.00 | 0.00 | 53 | 1013.8 |
| 20260505020834 | 69 | 139 | 0.9 | 0.9 | 0.00 | 0.00 | 0.00 | 52 | 1013.7 |
| 20260505020330 | 69 | 223 | 0.9 | 0.9 | 0.00 | 0.00 | 0.00 | 52 | 1013.8 |
| 20260505015827 | 69 | 155 | 0.0 | 0.9 | 0.00 | 0.00 | 0.00 | 52 | 1013.5 |
| 20260505015324 | 69 | 164 | 0.0 | 0.9 | 0.00 | 0.00 | 0.00 | 54 | 1013.2 |
| 20260505014821 | 69 | 138 | 0.0 | 0.9 | 0.00 | 0.00 | 0.00 | 53 | 1013.5 |
| 20260505014318 | 70 | 157 | 0.9 | 1.7 | 0.00 | 0.00 | 0.00 | 53 | 1013.3 |
| 20260505013815 | 70 | 106 | 0.9 | 0.9 | 0.00 | 0.00 | 0.00 | 53 | 1013.3 |
| 20260505013312 | 70 | 239 | 0.9 | 0.9 | 0.00 | 0.00 | 0.00 | 53 | 1013.3 |
| 20260505012811 | 70 | 150 | 0.9 | 0.9 | 0.00 | 0.00 | 0.00 | 55 | 1013.3 |
| 20260505012308 | 70 | 212 | 1.7 | 1.7 | 0.00 | 0.00 | 0.00 | 54 | 1013.3 |
| 20260505011803 | 70 | 192 | 1.7 | 2.6 | 0.00 | 0.00 | 0.00 | 55 | 1013.0 |
| 20260505011301 | 70 | 146 | 0.9 | 1.7 | 0.00 | 0.00 | 0.00 | 56 | 1012.8 |
| 20260505010756 | 70 | 198 | 1.7 | 2.6 | 0.00 | 0.00 | 0.00 | 56 | 1013.0 |
| 20260505010253 | 69 | 194 | 0.9 | 0.9 | 0.00 | 0.00 | 0.00 | 57 | 1013.1 |
| 20260505005749 | 69 | 169 | 0.0 | 0.9 | 0.00 | 0.00 | 0.00 | 58 | 1013.0 |
| 20260505005246 | 70 | 172 | 0.9 | 0.9 | 0.00 | 0.00 | 0.00 | 57 | 1012.8 |
| 20260505004743 | 70 | 177 | 0.9 | 1.7 | 0.00 | 0.00 | 0.00 | 57 | 1012.8 |
| 20260505004239 | 70 | 210 | 0.9 | 0.9 | 0.00 | 0.00 | 0.00 | 57 | 1012.8 |
| 20260505003737 | 70 | 258 | 0.0 | 0.9 | 0.00 | 0.00 | 0.00 | 56 | 1012.8 |
| 20260505003234 | 70 | 25 | 0.9 | 0.9 | 0.00 | 0.00 | 0.00 | 56 | 1013.0 |
| 20260505002731 | 71 | 235 | 0.0 | 0.9 | 0.00 | 0.00 | 0.00 | 55 | 1012.8 |
| 20260505002228 | 71 | 256 | 1.7 | 1.7 | 0.00 | 0.00 | 0.00 | 54 | 1012.8 |
| 20260505001725 | 71 | 199 | 0.0 | 0.9 | 0.00 | 0.00 | 0.00 | 54 | 1012.9 |
| 20260505001223 | 71 | 234 | 1.7 | 1.7 | 0.00 | 0.00 | 0.00 | 53 | 1012.7 |
| 20260505000720 | 71 | 197 | 2.6 | 4.3 | 0.00 | 0.00 | 0.00 | 54 | 1012.9 |
| 20260505000218 | 72 | 349 | 0.9 | 0.9 | 0.00 | 0.00 | 0.00 | 53 | 1012.9 |
| 20260504235714 | 72 | 147 | 0.9 | 0.9 | 0.00 | 0.00 | 0.00 | 52 | 1012.9 |
| 20260504235210 | 72 | 180 | 0.9 | 1.7 | 0.00 | 0.00 | 0.00 | 54 | 1012.9 |
| 20260504234708 | 72 | 161 | 0.0 | 0.0 | 0.00 | 0.00 | 0.00 | 54 | 1012.8 |
| 20260504234204 | 72 | 199 | 0.9 | 0.9 | 0.00 | 0.00 | 0.00 | 54 | 1012.8 |
| 20260504233700 | 72 | 307 | 0.9 | 0.9 | 0.00 | 0.00 | 0.00 | 55 | 1012.9 |
| 20260504233156 | 73 | 141 | 0.9 | 1.7 | 0.00 | 0.00 | 0.00 | 53 | 1013.0 |
| 20260504232654 | 73 | 148 | 0.0 | 0.9 | 0.00 | 0.00 | 0.00 | 54 | 1012.8 |
| 20260504232151 | 73 | 106 | 0.0 | 0.0 | 0.00 | 0.00 | 0.00 | 54 | 1012.6 |
| 20260504231648 | 73 | 146 | 0.0 | 0.0 | 0.00 | 0.00 | 0.00 | 54 | 1012.7 |
| 20260504231144 | 73 | 151 | 0.0 | 0.0 | 0.00 | 0.00 | 0.00 | 54 | 1012.7 |
| 20260504230640 | 73 | 146 | 0.0 | 0.0 | 0.00 | 0.00 | 0.00 | 53 | 1012.4 |
| 20260504230139 | 73 | 135 | 0.9 | 0.9 | 0.00 | 0.00 | 0.00 | 53 | 1012.7 |
| 20260504225637 | 73 | 150 | 0.9 | 1.7 | 0.00 | 0.00 | 0.00 | 52 | 1012.8 |
| 20260504225133 | 73 | 172 | 1.7 | 1.7 | 0.00 | 0.00 | 0.00 | 53 | 1012.7 |
| 20260504224630 | 73 | 91 | 0.9 | 0.9 | 0.00 | 0.00 | 0.00 | 53 | 1012.6 |
| 20260504224127 | 73 | 136 | 0.0 | 0.0 | 0.00 | 0.00 | 0.00 | 51 | 1012.8 |
| 20260504223624 | 73 | 174 | 0.9 | 0.9 | 0.00 | 0.00 | 0.00 | 52 | 1012.6 |
| 20260504223120 | 73 | 148 | 0.9 | 0.9 | 0.00 | 0.00 | 0.00 | 51 | 1012.7 |
| 20260504222617 | 73 | 178 | 0.9 | 0.9 | 0.00 | 0.00 | 0.00 | 50 | 1012.7 |
| 20260504222114 | 73 | 275 | 1.7 | 1.7 | 0.00 | 0.00 | 0.00 | 49 | 1012.3 |
| 20260504221611 | 74 | 176 | 2.6 | 4.3 | 0.00 | 0.00 | 0.00 | 50 | 1012.7 |
| 20260504221108 | 74 | 212 | 1.7 | 1.7 | 0.00 | 0.00 | 0.00 | 49 | 1012.6 |
| 20260504220604 | 74 | 164 | 1.7 | 1.7 | 0.00 | 0.00 | 0.00 | 48 | 1012.3 |
| 20260504215558 | 74 | 122 | 0.0 | 0.9 | 0.00 | 0.00 | 0.00 | 48 | 1012.7 |
| 20260504215055 | 75 | 166 | 0.9 | 1.7 | 0.00 | 0.00 | 0.00 | 47 | 1012.4 |
| 20260504214551 | 75 | 231 | 5.2 | 6.1 | 0.00 | 0.00 | 0.00 | 46 | 1012.4 |
| 20260504214048 | 75 | 167 | 2.6 | 2.6 | 0.00 | 0.00 | 0.00 | 46 | 1012.6 |
| 20260504213544 | 75 | 176 | 2.6 | 4.3 | 0.00 | 0.00 | 0.00 | 46 | 1012.7 |
| 20260504213041 | 75 | 228 | 0.9 | 1.7 | 0.00 | 0.00 | 0.00 | 46 | 1012.3 |
| 20260504212537 | 75 | 193 | 0.9 | 1.7 | 0.00 | 0.00 | 0.00 | 45 | 1012.4 |
| 20260504212035 | 75 | 188 | 2.6 | 2.6 | 0.00 | 0.00 | 0.00 | 45 | 1012.6 |
| 20260504211531 | 75 | 134 | 0.0 | 0.9 | 0.00 | 0.00 | 0.00 | 45 | 1012.6 |
| 20260504211028 | 75 | 153 | 0.9 | 0.9 | 0.00 | 0.00 | 0.00 | 46 | 1012.7 |
| 20260504210525 | 75 | 165 | 2.6 | 4.3 | 0.00 | 0.00 | 0.00 | 44 | 1012.3 |
| 20260504210022 | 75 | 192 | 2.6 | 4.3 | 0.00 | 0.00 | 0.00 | 46 | 1012.7 |
| 20260504205520 | 75 | 223 | 1.7 | 1.7 | 0.00 | 0.00 | 0.00 | 47 | 1012.7 |
| 20260504205018 | 75 | 212 | 2.6 | 2.6 | 0.00 | 0.00 | 0.00 | 50 | 1012.9 |
| 20260504204515 | 75 | 175 | 0.9 | 1.7 | 0.00 | 0.00 | 0.00 | 51 | 1013.3 |
| 20260504204014 | 75 | 174 | 2.6 | 2.6 | 0.00 | 0.00 | 0.00 | 51 | 1013.0 |
| 20260504203512 | 75 | 243 | 1.7 | 1.7 | 0.00 | 0.00 | 0.00 | 51 | 1013.3 |
| 20260504203009 | 75 | 160 | 1.7 | 1.7 | 0.00 | 0.00 | 0.00 | 50 | 1013.3 |
| 20260504202504 | 75 | 186 | 2.6 | 2.6 | 0.00 | 0.00 | 0.00 | 50 | 1013.0 |
| 20260504202001 | 75 | 154 | 1.7 | 1.7 | 0.00 | 0.00 | 0.00 | 50 | 1013.2 |
| 20260504201458 | 74 | 186 | 0.9 | 0.9 | 0.00 | 0.00 | 0.00 | 51 | 1013.0 |
| 20260504200956 | 74 | 176 | 2.6 | 2.6 | 0.00 | 0.00 | 0.00 | 51 | 1013.5 |
| 20260504200453 | 74 | 161 | 4.3 | 5.2 | 0.00 | 0.00 | 0.00 | 51 | 1013.4 |
| 20260504195949 | 74 | 182 | 3.5 | 4.3 | 0.00 | 0.00 | 0.00 | 51 | 1013.4 |
| 20260504195445 | 74 | 123 | 0.0 | 0.0 | 0.00 | 0.00 | 0.00 | 53 | 1013.6 |
| 20260504194942 | 74 | 151 | 0.9 | 1.7 | 0.00 | 0.00 | 0.00 | 52 | 1013.7 |
| 20260504194438 | 74 | 264 | 3.5 | 4.3 | 0.00 | 0.00 | 0.00 | 52 | 1013.7 |
| 20260504193934 | 74 | 139 | 0.9 | 0.9 | 0.00 | 0.00 | 0.00 | 52 | 1014.0 |